STARLINK-37759, 69223

Orbit data source: Space-Track

STARLINK-37759, 69223 is a payload satellite owned by SpaceX/Seattle (US) in SSO that was launched on Tue, 26 May 2026 UTC via an FALCON 9 launch vehicle from the Air Force Western Test Range (AFWTR). Payload-class satellites include a variety of spacecraft equipped with specific instruments for various scientific and technological missions. These include communications satellites like Starlink; space stations such as the ISS; scientific satellites like the Hubble; Earth observation satellites from companies like Planet Labs, Umbra, and HawkEye 360; GPS; miniature CubeSats for education and research; and military/defense satellites.

Loading next visibility...
Identifier
69223, 2026-115N
Orbit
SSO
Country
Flag of USUS
Related business
Manufacturer
SpaceX/Seattle
Mission
Operational spacecraft
Bus & Motor
STARLINK V2MO, Unknown motor
Mass
575 kg wet, ~530 kg dry
Launch date (UTC)
2026-05-26 (4 weeks ago)
Launch vehicle
FALCON 9
Launch site
Air Force Western Test Range (AFWTR)
Object type
Payload
Rocket body
Debris
Shape & HBR
Unknown
Radar Cross Section
Large (>1 m²)

Expand to show TLE details & history
Last TLE update: 20 hours ago

TLE from 20 hours ago
0 STARLINK-37759
1 69223U 26115N   26171.02876328  .00060360  00000-0  11020-2 0  9991
2 69223  97.2846 188.3499 0000952 119.7442 240.3904 15.49214447  5116
Epoch: 2026-06-20T00:41Z
TLE epoch observation values (Epoch: 2026-06-20T00:41:25.147Z)
Latitude
-0.00002°
Longitude
-90.25414°
Altitude
422.476 km
Speed
7.658 km/s
True Right ascension
12h 33m 23s
True Declination
0° 00' 00"
Sunlit
Object was in daylight at epoch
Visualization orbit readout
Latitude
Unknown
Longitude
Unknown
Altitude
Unknown
Speed
Unknown
Apparent Right ascension
Unknown
Apparent Declination
Unknown
Sunlit
N/A
Visualization observer readout
Local Sidereal Time
07:13:13
Azimuth
Unknown
Elevation
Unknown
Doppler factor
Unknown
Orbital elements
Apogee altitude
416.591 km
Perigee altitude
415.298 km
Semi-major axis
6,794.082 km
Eccentricity
0.0001
Inclination
97.2846°
RAAN
188.3499°
Arg. of periapsis
119.7442°
True anomaly
240.38092°
Mean anomaly
240.3904°
Eccentric anomaly
240.38566°
Mean motion
3.87567 °/min
Orbital period
92.89 mins
BSTAR
0.001102
Loading maneuver chart data...
Computing Atmospheric mass density...
Loading historical data...
Loading historical data...
Loading historical data...
Loading historical data...
Loading historical data...
Loading historical data...
Loading historical data...

Documentation

Showing up to 5 results
|